This is the latest recevied weather packets stored in our database for station/object NG6B-2. If no packets are shown the sender has not sent any weather packets the latest 10 day(s).
| Time | Temp. | Humidity | Pressure | Rain* | Wind** | Luminosity | Snow |
|---|---|---|---|---|---|---|---|
| 1777456801 | 15° C | 22% | 1009.8 hPa | 0 mm | - | - | - |
| 1777455000 | 15° C | 22% | 1009.7 hPa | 0 mm | - | - | - |
| 1777453199 | 15.56° C | 21% | 1010 hPa | 0 mm | - | - | - |
| 1777451398 | 16.11° C | 20% | 1009.9 hPa | 0 mm | - | - | - |
| 1777449597 | 16.67° C | 21% | 1009.9 hPa | 0 mm | - | - | - |
| 1777447796 | 16.67° C | 20% | 1010 hPa | 0 mm | - | - | - |
| 1777445995 | 16.67° C | 20% | 1010.2 hPa | 0 mm | - | - | - |
| 1777444194 | 17.22° C | 19% | 1009.9 hPa | 0 mm | - | - | - |
| 1777442393 | 16.67° C | 20% | 1010 hPa | 0 mm | - | - | - |
| 1777440592 | 17.78° C | 18% | 1009.9 hPa | 0 mm | - | - | - |
| 1777438791 | 18.89° C | 17% | 1009.8 hPa | 0 mm | - | - | - |
| 1777436990 | 19.44° C | 16% | 1009.3 hPa | 0 mm | - | - | - |
| 1777435189 | 20° C | 16% | 1009.3 hPa | 0 mm | - | - | - |
| 1777433388 | 21.11° C | 14% | 1009 hPa | 0 mm | - | - | - |
| 1777431587 | 22.22° C | 12% | 1008.7 hPa | 0 mm | - | - | - |
| 1777429786 | 22.78° C | 11% | 1008 hPa | 0 mm | - | - | - |
| 1777427985 | 23.89° C | 10% | 1007.9 hPa | 0 mm | - | - | - |
| 1777426184 | 25° C | 8% | 1007.8 hPa | 0 mm | - | - | - |
| 1777424383 | 25.56° C | 8% | 1007.8 hPa | 0 mm | - | - | - |
| 1777422582 | 26.11° C | 8% | 1007.7 hPa | 0 mm | - | - | - |
| 1777420781 | 26.67° C | 7% | 1007.3 hPa | 0 mm | - | - | - |
| 1777418980 | 27.78° C | 7% | 1007.4 hPa | 0 mm | - | - | - |
| 1777417179 | 28.33° C | 7% | 1007.3 hPa | 0 mm | - | - | - |
| 1777415378 | 27.78° C | 7% | 1007.6 hPa | 0 mm | - | - | - |
| 1777413577 | 27.78° C | 7% | 1007.9 hPa | 0 mm | - | - | - |
* Rain latest hour (hover to see other rain measurements)
** Current wind speed in m/s (hover to see current wind gust speed)